TimeCDT,TemperatureF,Dew PointF,Humidity,Sea Level PressureIn,VisibilityMPH,Wind Direction,Wind SpeedMPH,Gust SpeedMPH,PrecipitationIn,Events,Conditions,WindDirDegrees,DateUTC
12:15 AM,35.6,30.7,82,30.27,10.0,SE,6.9,-,N/A,,Scattered Clouds,140,2013-03-29 05:15:00
12:35 AM,36.5,31.1,81,30.27,10.0,SE,5.8,-,N/A,,Overcast,130,2013-03-29 05:35:00
12:55 AM,35.8,30.7,82,30.27,10.0,SE,6.9,-,N/A,,Scattered Clouds,130,2013-03-29 05:55:00
1:15 AM,36.1,30.9,81,30.27,10.0,SE,8.1,-,N/A,,Clear,130,2013-03-29 06:15:00
1:35 AM,36.5,30.6,79,30.27,10.0,SE,6.9,-,N/A,,Scattered Clouds,140,2013-03-29 06:35:00
1:55 AM,36.1,29.8,78,30.27,10.0,SE,5.8,-,N/A,,Scattered Clouds,140,2013-03-29 06:55:00
2:15 AM,35.8,29.5,78,30.27,10.0,SE,5.8,-,N/A,,Clear,130,2013-03-29 07:15:00
2:35 AM,34.9,28.6,78,30.26,10.0,ESE,5.8,-,N/A,,Clear,120,2013-03-29 07:35:00
2:55 AM,32.0,27.3,83,30.26,10.0,East,5.8,-,N/A,,Clear,100,2013-03-29 07:55:00
3:15 AM,32.0,27.5,83,30.25,10.0,East,6.9,-,N/A,,Clear,100,2013-03-29 08:15:00
3:35 AM,33.1,27.9,81,30.25,10.0,ESE,6.9,-,N/A,,Clear,110,2013-03-29 08:35:00
3:55 AM,33.1,26.8,78,30.25,10.0,ESE,6.9,-,N/A,,Clear,120,2013-03-29 08:55:00
4:15 AM,31.6,25.7,79,30.24,10.0,East,4.6,-,N/A,,Clear,90,2013-03-29 09:15:00
4:35 AM,30.2,25.7,83,30.24,10.0,East,5.8,-,N/A,,Clear,90,2013-03-29 09:35:00
4:55 AM,30.7,26.4,84,30.24,10.0,East,6.9,-,N/A,,Clear,90,2013-03-29 09:55:00
5:15 AM,32.2,26.1,78,30.24,10.0,East,8.1,-,N/A,,Clear,90,2013-03-29 10:15:00
5:35 AM,30.6,25.5,82,30.24,10.0,East,6.9,-,N/A,,Clear,90,2013-03-29 10:35:00
5:55 AM,30.0,25.7,84,30.25,10.0,ENE,6.9,-,N/A,,Clear,70,2013-03-29 10:55:00
6:15 AM,29.7,25.7,85,30.25,10.0,ENE,8.1,-,N/A,,Clear,70,2013-03-29 11:15:00
6:35 AM,29.7,26.4,88,30.25,10.0,ENE,6.9,-,N/A,,Clear,60,2013-03-29 11:35:00
6:55 AM,29.8,26.4,87,30.26,10.0,ENE,8.1,-,N/A,,Clear,70,2013-03-29 11:55:00
7:15 AM,30.0,26.8,88,30.27,7.0,East,5.8,-,N/A,,Clear,90,2013-03-29 12:15:00
7:35 AM,30.4,27.3,88,30.27,7.0,East,6.9,-,N/A,,Clear,80,2013-03-29 12:35:00
7:55 AM,31.8,28.4,87,30.27,7.0,East,8.1,-,N/A,,Clear,80,2013-03-29 12:55:00
8:15 AM,33.3,29.3,85,30.28,10.0,East,5.8,-,N/A,,Clear,80,2013-03-29 13:15:00
8:35 AM,34.7,29.8,82,30.28,10.0,ENE,9.2,-,N/A,,Clear,70,2013-03-29 13:35:00
8:55 AM,36.7,30.2,77,30.28,10.0,East,9.2,-,N/A,,Clear,80,2013-03-29 13:55:00
9:15 AM,39.6,30.6,70,30.28,10.0,ESE,8.1,-,N/A,,Clear,110,2013-03-29 14:15:00
9:35 AM,41.5,31.8,68,30.29,10.0,ESE,8.1,-,N/A,,Clear,120,2013-03-29 14:35:00
9:55 AM,43.9,32.2,63,30.28,10.0,ESE,9.2,-,N/A,,Clear,110,2013-03-29 14:55:00
10:15 AM,45.9,33.6,62,30.28,10.0,ESE,9.2,-,N/A,,Clear,120,2013-03-29 15:15:00
10:35 AM,48.0,34.0,58,30.28,10.0,SE,9.2,-,N/A,,Clear,130,2013-03-29 15:35:00
10:55 AM,49.1,33.8,56,30.29,10.0,SE,9.2,-,N/A,,Clear,130,2013-03-29 15:55:00
11:15 AM,50.5,34.5,54,30.29,10.0,SE,8.1,-,N/A,,Clear,130,2013-03-29 16:15:00
11:55 AM,52.9,34.3,49,30.28,10.0,ESE,8.1,-,N/A,,Clear,120,2013-03-29 16:55:00
12:15 PM,54.7,35.1,48,30.27,10.0,ESE,9.2,-,N/A,,Clear,110,2013-03-29 17:15:00
12:35 PM,54.7,33.8,45,30.27,10.0,ESE,8.1,-,N/A,,Clear,120,2013-03-29 17:35:00
12:55 PM,55.9,32.5,41,30.26,10.0,SE,9.2,-,N/A,,Clear,130,2013-03-29 17:55:00
1:15 PM,56.3,32.7,41,30.25,10.0,SE,10.4,-,N/A,,Clear,130,2013-03-29 18:15:00
1:35 PM,57.0,30.9,37,30.25,10.0,ESE,11.5,17.3,N/A,,Clear,110,2013-03-29 18:35:00
1:55 PM,58.1,31.8,37,30.24,10.0,ESE,11.5,-,N/A,,Clear,110,2013-03-29 18:55:00
2:15 PM,58.3,30.9,35,30.24,10.0,SE,9.2,16.1,N/A,,Clear,140,2013-03-29 19:15:00
2:35 PM,59.0,31.6,36,30.23,10.0,East,9.2,-,N/A,,Clear,100,2013-03-29 19:35:00
2:55 PM,58.3,31.5,36,30.22,10.0,SE,9.2,-,N/A,,Clear,140,2013-03-29 19:55:00
3:15 PM,59.2,30.9,34,30.21,10.0,East,11.5,-,N/A,,Clear,90,2013-03-29 20:15:00
3:35 PM,60.1,30.6,33,30.21,10.0,ESE,11.5,-,N/A,,Clear,110,2013-03-29 20:35:00
3:55 PM,59.4,29.8,33,30.20,10.0,ESE,4.6,-,N/A,,Clear,110,2013-03-29 20:55:00
4:15 PM,59.9,30.6,33,30.19,10.0,SSE,5.8,-,N/A,,Clear,150,2013-03-29 21:15:00
4:35 PM,59.7,29.8,32,30.19,10.0,ESE,11.5,16.1,N/A,,Clear,120,2013-03-29 21:35:00
4:55 PM,59.7,28.8,31,30.19,10.0,SE,9.2,-,N/A,,Clear,140,2013-03-29 21:55:00
5:15 PM,59.9,29.5,32,30.18,10.0,SE,10.4,-,N/A,,Clear,130,2013-03-29 22:15:00
5:35 PM,59.4,29.1,32,30.19,10.0,ESE,9.2,-,N/A,,Clear,120,2013-03-29 22:35:00
5:55 PM,59.0,28.8,32,30.18,10.0,SE,10.4,-,N/A,,Clear,130,2013-03-29 22:55:00
6:15 PM,58.5,28.8,32,30.18,10.0,ESE,8.1,-,N/A,,Clear,120,2013-03-29 23:15:00
6:35 PM,57.7,30.2,35,30.18,10.0,ESE,9.2,-,N/A,,Clear,120,2013-03-29 23:35:00
6:55 PM,56.1,30.9,38,30.18,10.0,SE,8.1,-,N/A,,Clear,130,2013-03-29 23:55:00
7:15 PM,53.8,32.0,44,30.18,10.0,ESE,6.9,-,N/A,,Clear,120,2013-03-30 00:15:00
7:35 PM,51.8,32.0,47,30.17,10.0,ESE,6.9,-,N/A,,Clear,120,2013-03-30 00:35:00
7:55 PM,49.5,32.0,51,30.17,10.0,ESE,9.2,-,N/A,,Clear,120,2013-03-30 00:55:00
8:15 PM,48.9,32.2,52,30.18,10.0,ESE,6.9,-,N/A,,Clear,120,2013-03-30 01:15:00
8:35 PM,47.5,32.0,55,30.18,10.0,ESE,9.2,-,N/A,,Clear,120,2013-03-30 01:35:00
8:55 PM,46.6,31.8,56,30.19,10.0,SE,8.1,-,N/A,,Clear,130,2013-03-30 01:55:00
9:15 PM,45.9,31.6,58,30.19,10.0,SE,8.1,-,N/A,,Clear,130,2013-03-30 02:15:00
9:35 PM,43.0,31.6,64,30.19,10.0,SE,9.2,-,N/A,,Clear,140,2013-03-30 02:35:00
9:55 PM,43.5,31.8,63,30.19,10.0,SE,8.1,-,N/A,,Clear,130,2013-03-30 02:55:00
10:15 PM,42.4,31.6,66,30.18,10.0,SE,9.2,-,N/A,,Clear,140,2013-03-30 03:15:00
10:35 PM,41.0,31.1,68,30.18,10.0,SE,9.2,-,N/A,,Clear,140,2013-03-30 03:35:00
10:55 PM,40.5,30.9,69,30.17,10.0,SE,9.2,-,N/A,,Clear,140,2013-03-30 03:55:00
11:15 PM,39.4,30.7,71,30.17,10.0,SE,10.4,-,N/A,,Clear,140,2013-03-30 04:15:00
11:35 PM,39.4,30.6,71,30.17,10.0,SSE,10.4,-,N/A,,Clear,150,2013-03-30 04:35:00
11:55 PM,40.6,30.7,68,30.16,10.0,SE,9.2,-,N/A,,Clear,140,2013-03-30 04:55:00